This is the latest recevied weather packets stored in our database for station/object N3FWE. If no packets are shown the sender has not sent any weather packets the latest 10 day(s).
| Time | Temp. | Humidity | Pressure | Rain* | Wind** | Luminosity | Snow |
|---|---|---|---|---|---|---|---|
| 1777534212 | 9.44° C | 95% | 1007.8 hPa | 0 mm | - | - | - |
| 1777533612 | 9.44° C | 95% | 1007.8 hPa | 0 mm | - | - | - |
| 1777533011 | 9.44° C | 95% | 1007.6 hPa | 0 mm | - | - | - |
| 1777532411 | 10° C | 95% | 1007.7 hPa | 0.25 mm | - | - | - |
| 1777531811 | 10° C | 95% | 1007.8 hPa | 1.78 mm | - | - | - |
| 1777531211 | 10° C | 95% | 1008 hPa | 3.3 mm | - | - | - |
| 1777530612 | 10° C | 95% | 1008 hPa | 3.3 mm | - | - | - |
| 1777530011 | 10° C | 95% | 1008 hPa | 3.3 mm | - | - | - |
| 1777529411 | 10° C | 95% | 1008.3 hPa | 3.3 mm | - | - | - |
| 1777528812 | 10° C | 95% | 1008.5 hPa | 3.05 mm | - | - | - |
| 1777528211 | 10° C | 95% | 1008.4 hPa | 1.52 mm | - | - | - |
| 1777527610 | 10° C | 95% | 1008.3 hPa | 0 mm | - | - | - |
| 1777527011 | 10° C | 95% | 1008.2 hPa | 0 mm | - | - | - |
| 1777526411 | 10° C | 95% | 1008.4 hPa | 0 mm | - | - | - |
| 1777525811 | 10° C | 95% | 1008.4 hPa | 0 mm | - | - | - |
| 1777525211 | 10° C | 95% | 1008.6 hPa | 0 mm | - | - | - |
| 1777524610 | 10° C | 95% | 1008.5 hPa | 0 mm | - | - | - |
| 1777524013 | 10° C | 95% | 1008.4 hPa | 0 mm | - | - | - |
| 1777523413 | 10° C | 95% | 1008.4 hPa | 0 mm | - | - | - |
| 1777522813 | 10° C | 95% | 1008.6 hPa | 0 mm | - | - | - |
| 1777522213 | 10° C | 95% | 1008.6 hPa | 0 mm | - | - | - |
| 1777521616 | 10.56° C | 95% | 1008.6 hPa | 0 mm | - | - | - |
| 1777521013 | 10.56° C | 95% | 1008.7 hPa | 0 mm | - | - | - |
| 1777520413 | 10.56° C | 95% | 1008.7 hPa | 0 mm | - | - | - |
| 1777519813 | 10.56° C | 95% | 1008.7 hPa | 0 mm | - | - | - |
* Rain latest hour (hover to see other rain measurements)
** Current wind speed in m/s (hover to see current wind gust speed)